{"data":{"norad_id":64491,"intl_designator":"2025-133V","name":"STARLINK-34530","alt_names":[],"object_type":"PAYLOAD","status":"ACTIVE","operator":null,"country":"US","launch_date":"2025-06-23","launch_site_code":"AFETR","launch_vehicle":null,"mission":null,"orbit_class":"UNKNOWN","rcs_meters":null,"size_class":null,"mass_kg":null,"dimensions":null,"purposes":["comms"],"wikipedia_slug":null,"has_3d_model":false,"image_url":null,"decayed_at":null,"tle_current":{"epoch":"2026-05-25T04:37:06.739104Z","epoch_age_seconds":52319,"freshness":"FRESH","line1":"1 64491U 25133V   26145.19243911  .00025893  00000+0  74991-3 0  9995","line2":"2 64491  53.1603 119.1535 0000980  66.4520 293.6586 15.35431124 52903","mean_motion":15.35431124,"eccentricity":9.8e-5,"inclination_deg":53.1603,"raan_deg":119.1535,"arg_perigee_deg":66.452,"mean_anomaly_deg":293.6586,"bstar":0.00074991,"rev_number":5290,"period_min":93.784734299811,"perigee_km":458.9701354397,"apogee_km":460.31033977828,"semimajor_km":6837.777237609,"source":"CELESTRAK","updated_at":"2026-05-25T13:38:20.461275Z"}}}